Wind_Speed
74 72 70 71 72 71 69 66 63 61 61 61 61 60 60 60 59 58 57 56 55 53 50 46 46 46 46 45 45 45 46 47 46 43 40 39 39 41 42 42 41 40 40 40 39 38 37 35 33 31 30 30 30 30 31 32 33 34 34 34 34 34 35 36 36 37 38 39 40 40 40 40 40 40 40 39 40 40 40 41 41 42 42 43 43 44
74 72 71 71 71 70 68 66 62 61 62 63 63 62 61 60 58 57 57 56 55 53 50 46 47 49 48 46 46 46 47 48 46 44 42 41 41 42 42 42 41 41 41 41 40 40 39 38 36 35 34 33 32 32 32 33 34 35 35 35 35 35 35 36 37 38 38 39 40 40 41 42 42 43 43 42 42 42 42 42 42 42 43 43 44 44
73 72 73 72 70 69 68 67 65 64 65 65 64 62 59 58 57 57 58 58 56 53 49 46 47 50 49 46 46 46 47 48 47 46 44 42 42 43 43 43 43 43 42 42 41 42 41 40 39 39 37 37 36 35 34 34 35 36 36 36 36 36 36 37 38 38 39 39 39 40 41 42 43 43 44 44 44 45 45 45 44 44 44 44 44 44
74 74 73 71 69 68 68 67 67 66 66 67 66 63 60 59 58 58 58 57 55 51 48 47 47 50 50 48 48 48 48 49 49 48 46 44 44 44 45 45 44 44 43 43 44 44 43 42 41 41 40 39 39 38 36 35 36 37 37 38 38 38 38 38 38 38 39 39 40 40 41 41 42 43 43 44 44 45 46 46 46 46 45 45 45 45
78 76 74 71 71 70 69 69 68 68 68 68 68 67 65 64 62 59 57 56 54 52 51 49 47 50 52 50 50 50 49 50 50 50 49 46 45 46 46 46 45 45 45 45 46 46 45 44 43 43 42 41 41 40 39 39 39 39 40 39 39 39 39 39 39 40 40 41 41 42 42 42 42 43 43 43 43 43 44 45 46 47 47 47 46 46
78 77 75 74 74 73 72 72 72 72 71 70 70 69 69 68 66 64 61 59 58 57 55 52 48 50 53 52 53 53 51 51 51 52 51 49 48 48 49 49 48 48 48 48 47 47 46 46 46 46 44 44 43 43 43 42 42 42 42 42 41 41 42 42 42 42 42 43 43 43 43 44 44 43 43 43 43 43 43 44 45 46 47 47 47 47
78 77 76 76 75 75 74 74 74 74 72 71 69 69 68 68 68 68 67 66 64 60 58 54 50 52 55 56 56 55 53 53 53 53 53 51 51 52 52 51 51 51 51 49 49 48 47 48 48 47 46 46 47 47 47 46 46 45 44 43 43 43 44 44 45 45 45 45 45 45 45 46 45 45 44 43 43 43 43 44 44 44 44 45 46 47
80 79 78 78 77 77 76 75 75 74 73 71 70 69 68 67 67 68 69 69 66 63 59 56 54 54 57 60 60 57 55 55 55 55 54 53 54 55 55 54 53 53 52 50 50 49 49 50 49 48 48 48 49 50 50 49 49 48 47 45 45 45 46 46 47 48 48 47 48 47 48 48 47 46 45 45 45 44 45 45 45 44 44 44 45 45
82 81 81 80 80 79 78 77 77 76 75 74 73 72 71 70 69 68 68 68 66 63 59 59 59 56 56 63 64 57 56 57 57 57 56 56 57 57 57 57 55 54 52 51 51 51 51 51 51 50 50 50 51 52 52 51 50 50 49 48 47 47 48 48 49 50 50 50 50 50 50 49 48 47 47 47 47 46 46 47 46 46 46 46 46 46
84 83 82 82 81 80 80 79 79 79 78 77 77 76 75 74 72 71 69 68 66 63 61 63 64 58 54 62 65 58 57 59 59 59 59 60 60 60 60 59 57 56 54 53 53 53 53 53 53 53 52 53 54 54 54 52 52 52 51 51 51 50 50 50 51 52 52 52 52 52 51 51 50 50 49 49 49 48 48 48 48 48 49 48 48 48
85 85 84 83 82 82 81 81 80 80 79 79 79 78 77 75 74 73 71 70 68 65 64 66 66 60 52 57 64 61 59 61 62 63 64 64 63 62 62 62 60 58 56 55 55 55 54 54 55 55 55 56 57 56 56 55 54 54 54 54 54 53 52 53 53 54 54 54 54 54 54 53 53 52 52 52 52 51 50 50 50 51 51 51 51 50
87 87 85 84 84 83 83 82 81 81 79 79 79 79 78 77 76 75 73 73 70 67 67 67 67 61 50 53 63 63 62 64 67 68 68 67 66 65 65 64 63 60 58 56 56 56 56 55 56 57 58 59 59 59 58 57 57 57 57 57 57 56 55 55 55 55 56 56 56 56 56 56 55 55 55 54 54 53 53 53 54 54 55 54 54 53
88 88 87 87 86 86 85 84 83 82 81 81 81 80 80 79 78 77 75 75 72 69 69 68 68 61 50 53 62 66 68 70 70 71 71 70 69 68 67 65 63 61 59 58 57 57 57 58 59 60 61 61 61 61 60 60 60 61 61 60 59 58 58 58 57 57 57 58 59 59 59 59 58 57 57 57 57 57 57 57 58 58 58 58 57 56
90 90 90 88 88 87 87 86 85 85 84 84 84 83 82 81 80 78 77 77 75 72 72 71 70 64 54 55 61 67 74 75 74 74 74 73 71 69 68 66 63 62 61 60 59 59 60 61 62 62 63 63 63 63 63 63 63 63 63 63 62 61 60 60 59 59 59 60 61 62 62 61 61 60 60 60 60 60 61 61 62 62 62 61 61 60
92 91 90 90 89 89 89 89 89 89 89 87 86 85 84 82 81 80 81 80 78 76 75 73 71 66 60 60 63 67 74 78 77 76 75 74 73 71 70 68 66 65 64 63 63 64 64 64 64 64 64 64 65 65 65 66 66 66 66 65 64 63 63 63 62 61 62 62 63 63 64 64 63 62 62 62 63 64 64 65 66 66 65 65 64 64
92 91 91 91 91 91 91 92 92 92 91 89 88 86 85 84 85 84 84 82 81 80 77 74 71 67 66 66 65 67 70 74 77 77 76 75 74 74 73 70 69 69 68 68 67 67 67 66 66 67 66 66 66 66 67 68 68 69 68 68 67 67 66 65 65 64 64 65 65 66 66 65 65 64 64 64 65 66 67 68 68 68 68 68 67 67
94 93 93 94 94 94 94 94 94 94 93 92 90 88 87 88 88 87 86 84 84 83 80 77 74 70 70 69 67 67 67 70 75 78 78 76 75 75 74 72 72 71 70 70 69 69 69 69 69 69 68 68 68 69 69 70 71 70 70 70 69 69 69 68 68 67 67 67 68 68 67 67 67 67 67 67 67 68 69 70 71 71 71 70 70 69
96 96 96 96 96 96 97 97 96 95 94 92 90 89 89 90 90 89 88 87 86 85 82 79 76 73 71 69 68 67 67 69 73 76 78 77 76 75 74 74 74 73 72 71 71 71 71 71 71 71 71 71 71 72 72 73 72 72 72 71 71 71 71 71 71 71 70 69 69 69 69 69 69 69 69 69 69 70 72 73 74 74 74 73 72 71
98 97 97 96 96 96 97 97 96 94 93 92 90 90 91 92 91 91 91 90 89 88 85 80 78 75 71 69 68 68 68 70 72 74 76 77 77 77 76 76 76 75 75 74 74 74 73 74 74 75 75 74 74 75 75 75 75 75 74 74 74 74 74 74 74 73 72 71 71 70 70 70 70 71 71 71 72 73 74 76 77 78 78 76 75 74
98 98 98 97 96 97 97 96 95 93 93 93 92 93 93 93 93 93 93 92 90 89 86 80 77 73 70 68 68 69 69 71 72 73 73 74 76 78 78 78 78 78 77 77 77 76 76 76 77 77 78 78 78 78 78 78 77 78 77 77 77 77 77 76 76 76 74 74 73 73 73 73 72 73 73 74 75 76 77 79 80 81 81 80 79 78
99 99 99 98 97 97 96 94 93 93 94 95 95 95 94 94 94 94 93 92 91 90 87 82 76 70 68 69 69 69 70 71 72 72 72 73 74 77 79 80 80 80 80 80 80 79 78 78 79 80 82 82 81 81 80 80 80 81 80 80 80 79 79 79 79 78 77 77 76 75 76 76 75 75 76 76 77 78 80 81 82 83 83 83 83 82
99 98 98 98 97 96 95 95 95 95 96 96 96 95 94 94 95 95 94 92 91 90 88 86 79 69 66 68 68 69 70 70 71 72 73 73 74 76 79 80 82 82 82 82 82 81 81 81 83 85 85 85 84 84 83 83 83 83 82 82 81 81 81 81 81 80 80 80 79 79 79 79 79 79 79 79 80 81 82 83 84 85 86 86 86 85
101 101 100 99 98 97 97 98 98 98 98 98 97 95 94 94 95 95 94 92 93 92 90 90 83 69 63 66 68 69 70 70 71 72 73 75 76 78 80 81 82 83 83 83 83 83 84 85 87 88 88 87 87 87 86 86 85 84 83 83 83 82 83 83 83 83 83 83 83 83 82 82 82 83 83 83 83 83 84 85 86 87 88 89 89 88
103 102 101 99 98 98 99 99 99 99 99 98 96 95 94 95 95 95 96 95 95 93 90 91 86 71 62 63 66 68 70 72 73 74 76 78 79 81 82 83 84 84 85 86 86 87 87 87 88 88 89 89 89 90 89 88 87 86 85 85 85 85 85 86 86 86 86 86 86 86 85 85 85 85 86 86 86 85 86 86 88 89 91 91 92 91
104 104 102 100 99 99 99 98 97 96 96 94 93 93 94 95 96 97 97 97 97 93 90 92 87 74 67 67 67 69 72 74 76 77 78 80 81 82 83 84 85 86 87 87 88 88 88 88 88 89 90 91 91 92 91 90 89 88 88 88 88 88 88 89 89 89 89 88 88 88 89 88 88 88 89 90 89 89 88 88 89 91 92 93 94 93
107 106 105 103 102 100 98 97 95 94 95 95 95 94 95 96 98 98 99 100 98 92 90 92 87 76 71 72 72 73 75 77 79 81 81 82 84 85 86 86 88 89 90 91 92 91 90 90 89 89 90 91 91 91 91 90 90 89 89 90 90 91 92 92 92 91 91 91 91 91 92 92 92 92 92 92 92 91 91 91 91 92 93 95 96 96
109 108 108 106 104 102 99 98 98 98 99 99 97 96 97 98 99 100 101 100 96 92 92 92 87 79 75 75 76 77 78 79 81 84 86 87 88 89 91 92 93 92 93 95 94 93 92 91 91 91 91 91 91 91 91 91 90 91 91 91 92 93 94 95 94 94 94 94 94 94 95 95 95 94 94 94 94 94 93 93 94 94 95 96 97 98
110 110 109 108 107 105 104 103 102 102 101 101 100 100 100 101 101 102 101 98 95 96 96 92 89 87 82 80 82 84 83 82 84 86 88 90 93 95 96 95 94 94 95 96 95 94 94 94 94 94 93 93 93 93 93 92 92 93 93 94 95 96 96 97 97 96 96 96 96 96 97 97 97 96 96 96 96 96 96 96 96 97 97 98 99 99
111 111 111 110 109 109 108 107 105 104 104 104 104 104 104 104 104 103 101 99 99 101 99 94 93 94 88 84 86 88 88 88 89 90 92 95 98 100 99 97 96 97 98 99 98 98 98 98 98 97 97 96 96 95 95 95 95 95 95 96 97 98 98 99 98 98 98 98 98 98 99 99 98 98 98 98 98 99 99 99 99 99 99 99 99 99
113 112 112 112 112 111 111 110 108 108 109 108 108 108 108 107 106 104 103 103 104 105 103 99 99 98 94 90 90 91 92 92 94 96 98 100 102 102 101 100 100 100 101 101 102 101 101 101 101 101 100 101 101 100 98 97 97 96 96 96 97 98 98 99 99 99 100 100 101 101 101 101 101 101 101 101 101 101 102 102 101 101 101 101 101 101
116 115 114 114 114 114 113 112 112 112 112 113 112 112 110 108 106 106 105 106 108 108 106 105 105 102 99 97 95 95 97 98 97 98 100 102 103 102 102 102 102 102 103 103 104 104 104 105 105 104 104 104 103 103 102 100 98 97 96 97 97 98 98 99 99 101 102 103 104 104 104 104 104 104 103 103 104 104 104 103 103 103 103 103 103 103
120 119 118 118 118 117 115 115 115 116 117 117 116 113 109 107 107 108 109 110 111 111 111 111 111 107 103 102 102 100 101 101 99 99 101 102 102 102 101 102 103 104 105 105 106 106 106 106 106 106 105 105 104 104 103 102 101 100 99 99 100 100 100 101 101 102 104 105 106 107 107 107 107 106 106 106 106 106 106 106 106 106 106 106 105 105
124 122 121 121 122 120 118 118 119 121 122 121 116 111 109 109 111 112 114 114 114 115 116 116 115 111 108 107 107 105 105 104 103 103 103 102 102 101 102 103 104 106 106 106 106 107 107 107 107 107 107 107 107 106 105 105 104 103 103 103 103 104 104 104 104 104 105 106 108 108 109 109 109 109 108 109 108 108 108 108 108 108 108 108 108 108
124 123 122 123 123 123 121 121 123 126 126 122 116 112 113 115 117 118 118 117 117 119 121 120 118 116 113 112 111 111 111 111 110 108 106 105 105 105 104 105 106 106 107 107 108 108 108 108 108 109 110 110 110 109 109 108 107 107 106 107 107 107 107 107 107 107 108 108 109 110 110 111 111 111 111 111 110 110 109 109 110 110 111 111 111 110
123 123 123 124 124 124 124 126 128 128 126 121 117 116 118 120 121 121 121 120 121 122 124 124 122 119 117 116 117 116 115 114 113 112 110 110 110 110 109 109 109 109 109 110 110 110 110 110 111 111 112 113 113 112 112 112 111 110 109 110 110 110 110 110 110 110 110 111 111 111 112 113 113 113 113 113 112 111 111 112 112 113 113 112 110 109
122 122 122 123 124 125 127 128 129 128 125 121 119 119 120 120 122 124 124 124 124 125 126 126 125 122 120 119 118 117 116 115 114 113 113 113 113 112 112 111 111 112 112 112 113 113 113 113 113 113 114 114 115 115 115 114 114 113 112 112 113 113 112 112 112 112 113 113 112 112 112 113 114 114 114 115 115 114 114 114 113 112 111 110 108 106
121 122 122 123 125 126 128 129 130 129 126 122 119 118 118 120 123 126 127 127 126 127 127 127 125 124 123 122 120 119 118 117 116 115 114 114 113 113 112 112 112 112 112 112 112 113 113 113 113 114 114 115 115 116 116 116 115 115 114 114 114 114 114 113 113 113 113 113 113 113 113 114 114 115 115 116 115 115 114 113 111 109 108 106 105 103
122 122 123 124 126 128 129 130 131 131 127 122 117 116 117 120 125 128 129 128 127 126 126 126 126 126 126 125 123 122 121 120 119 118 117 115 114 113 112 111 111 110 110 111 111 111 111 112 112 113 113 114 115 115 116 116 116 116 115 115 115 115 114 114 114 114 114 114 114 114 114 113 113 113 113 113 112 112 111 109 108 106 105 103 101 100
124 124 124 126 127 128 129 129 131 131 126 120 116 116 118 122 125 129 129 128 126 125 124 125 126 126 126 125 124 123 121 119 118 117 116 115 113 113 112 110 110 109 109 109 109 108 108 109 110 111 112 112 113 113 113 113 113 114 114 114 114 114 113 113 113 112 112 111 111 111 110 109 109 108 108 108 108 107 107 106 105 104 103 102 100 99
125 125 125 126 127 127 128 129 130 129 124 119 116 116 120 124 127 129 129 126 123 122 122 124 125 125 125 124 122 121 120 117 115 114 113 112 111 111 110 109 108 108 107 107 107 107 106 106 106 107 109 110 110 110 110 109 109 109 110 110 110 110 110 109 109 108 107 107 106 106 105 104 104 103 103 103 102 103 103 103 103 102 102 101 100 100
121 122 123 124 124 125 126 127 128 126 122 118 116 116 119 125 128 128 125 123 121 120 121 123 122 121 120 119 117 116 115 114 111 109 108 106 106 106 106 105 104 104 103 103 103 103 103 103 103 103 104 106 106 106 106 105 104 104 104 104 104 104 104 104 103 103 102 101 101 100 100 99 99 98 98 98 99 100 100 101 101 101 102 102 102 102
117 118 119 120 120 121 122 124 125 123 117 113 112 113 117 122 125 123 121 119 118 118 118 118 117 115 113 111 110 110 109 108 106 104 103 101 100 100 101 101 100 99 98 98 97 97 97 96 97 97 97 99 100 100 100 99 99 98 98 98 98 98 97 98 98 98 98 97 97 97 97 97 96 96 97 97 98 99 99 100 101 102 103 103 104 105
112 114 115 115 116 117 118 120 121 117 111 107 108 111 115 118 119 118 116 114 113 112 111 110 109 108 106 105 104 103 102 102 101 100 99 98 97 97 97 97 97 96 96 95 94 94 93 92 92 92 93 94 96 96 96 95 95 95 96 96 96 96 96 97 97 98 98 98 98 98 98 98 98 98 99 99 100 101 101 102 103 104 105 105 106 107
111 111 111 110 110 112 114 114 114 110 106 104 104 107 110 111 111 110 109 108 106 105 104 103 103 103 102 101 100 99 99 98 98 97 96 95 95 94 94 94 94 94 94 94 93 93 93 92 92 92 93 95 96 97 97 96 96 96 97 98 99 99 99 100 101 101 101 101 101 101 101 101 102 102 103 103 104 105 105 106 107 108 108 109 109 110
109 108 108 108 108 109 110 110 108 106 104 102 101 102 104 106 105 105 104 103 102 102 101 101 102 101 101 101 100 100 100 99 98 98 97 96 95 95 95 95 95 95 95 96 96 96 95 95 94 95 95 97 99 100 100 99 99 99 100 101 102 103 103 104 104 104 105 105 105 105 106 106 107 108 108 109 109 110 111 112 112 113 114 114 115 115
109 109 109 110 109 109 108 108 106 105 104 102 102 102 103 105 106 106 105 104 104 104 104 104 104 104 104 103 103 102 102 102 101 100 100 99 99 99 99 99 99 99 99 100 100 100 100 99 99 99 98 99 101 104 104 103 103 103 103 104 105 106 106 107 107 108 108 109 110 111 112 113 114 115 116 116 117 117 118 118 119 119 119 119 120 120
111 111 111 112 112 111 109 108 107 107 107 106 106 106 107 108 109 109 109 108 108 108 108 108 108 108 107 107 106 105 105 105 104 103 103 103 103 103 103 103 103 103 104 104 104 105 104 104 103 103 103 103 105 107 108 108 108 108 108 108 109 110 111 112 113 115 116 117 118 119 120 121 121 122 122 123 123 123 123 123 123 123 122 122 122 121
113 113 113 113 113 112 111 110 110 110 111 111 111 112 112 112 113 113 113 112 112 112 111 111 112 111 111 110 109 108 108 108 108 107 107 107 108 108 109 109 109 109 110 111 111 111 111 110 110 109 109 110 112 114 115 116 117 117 117 117 118 118 119 120 121 122 124 124 125 125 125 125 124 124 125 125 125 125 125 124 123 123 122 121 121 120
118 118 117 116 115 114 113 113 114 114 116 117 117 117 117 116 117 117 116 116 115 115 115 115 115 115 115 115 114 114 114 114 114 114 114 114 115 115 115 116 116 116 117 118 119 119 119 119 119 119 119 119 121 122 123 124 125 126 126 126 126 126 125 126 126 127 127 126 125 125 124 124 124 123 123 123 123 123 123 122 121 121 120 119 119 119
123 122 121 121 120 120 119 120 121 122 123 123 123 122 122 121 121 122 122 122 121 121 121 121 121 122 122 122 122 121 121 121 121 121 121 121 122 122 122 122 122 123 124 125 125 126 126 126 126 126 126 126 127 127 127 128 128 129 130 130 129 129 128 127 126 125 124 122 121 121 121 121 120 120 120 120 120 120 120 119 119 118 118 117 117 117
127 127 127 127 127 127 126 127 127 128 128 128 128 127 127 127 127 128 129 129 129 128 128 128 128 128 128 129 128 128 128 128 128 128 128 128 128 129 129 129 129 130 131 131 131 132 131 131 131 130 130 129 129 129 129 128 128 129 129 128 127 126 125 124 122 121 120 119 118 118 117 117 117 117 117 117 117 117 117 117 116 116 115 114 114 114
Wind_Direction
240 241 242 243 244 244 245 246 247 249 250 251 252 255 257 259 260 262 264 265 264 264 264 265 268 271 274 278 281 283 281 279 280 282 285 287 290 293 295 297 297 297 298 300 303 305 307 311 313 314 314 313 312 310 307 304 301 298 297 297 297 297 297 297 298 299 299 299 299 299 299 298 297 297 296 295 295 295 295 295 296 296 297 298 298 298
239 240 241 242 244 245 245 246 246 247 249 251 254 256 258 259 260 262 263 263 262 261 261 263 268 272 275 277 280 281 280 278 278 279 281 285 288 291 292 293 293 293 295 297 299 301 305 308 310 312 313 311 310 309 307 304 302 299 298 297 296 296 296 296 296 297 297 298 298 299 299 300 300 300 299 298 298 298 298 298 299 299 299 299 299 298
238 239 240 241 243 244 244 245 245 246 248 251 253 254 255 257 260 261 262 261 258 257 259 265 269 272 274 276 279 280 279 276 275 277 280 284 286 288 289 289 289 290 292 293 295 298 302 304 306 309 310 309 308 308 307 305 303 302 300 298 297 297 297 296 295 295 295 295 295 296 298 299 299 300 300 300 300 301 300 300 300 300 300 299 299 298
239 240 240 241 242 243 243 244 245 246 247 249 251 252 254 256 258 261 260 257 254 255 262 267 269 271 273 276 278 279 277 274 274 276 279 283 285 286 287 287 287 288 289 290 293 296 298 300 303 306 308 307 307 307 307 306 305 304 303 301 300 299 298 296 295 294 293 293 293 293 295 296 297 298 299 299 300 300 301 302 302 302 301 300 299 298
240 241 242 243 244 244 245 245 247 248 249 250 251 252 253 254 256 259 258 254 253 259 265 266 267 271 274 276 277 278 275 272 273 276 279 282 283 283 284 286 286 286 286 288 291 294 295 297 300 303 304 304 305 306 306 306 305 305 305 304 303 301 298 297 295 294 293 292 292 292 293 294 295 296 297 297 298 299 301 302 302 302 302 301 299 298
241 242 243 243 244 245 245 246 247 249 250 251 252 253 253 254 255 256 256 255 257 262 265 264 266 271 274 276 277 277 275 271 271 274 278 281 282 282 283 285 285 283 284 287 289 291 292 295 298 300 301 303 304 304 304 304 305 305 305 305 304 302 300 298 296 295 294 293 292 292 293 294 295 296 296 296 297 298 299 300 300 301 301 301 300 300
241 242 242 243 244 245 245 246 247 248 249 250 251 253 254 255 255 255 256 256 259 262 262 263 265 270 273 275 275 275 274 271 270 273 276 280 281 281 283 284 283 282 283 285 286 288 290 294 296 298 299 301 302 303 303 303 303 303 304 305 305 304 301 299 297 296 295 294 293 293 294 295 296 296 295 295 296 298 298 298 298 298 299 299 300 300
240 240 241 242 243 244 245 246 247 248 249 250 251 252 254 255 255 255 255 256 258 260 260 261 264 269 273 275 274 274 272 269 269 271 276 279 280 281 282 283 282 281 281 282 284 286 289 292 293 294 296 298 300 301 301 302 302 302 303 304 304 304 302 300 298 297 295 295 295 295 296 296 296 296 296 296 297 297 297 297 297 297 296 296 296 297
239 240 241 242 243 244 246 247 248 249 250 251 252 253 254 255 255 255 256 256 257 258 259 262 265 269 272 274 274 273 269 266 267 271 276 279 280 281 282 282 280 278 278 279 282 285 287 288 289 291 293 295 297 298 299 299 299 300 301 303 303 303 301 299 297 296 295 295 296 296 296 297 297 297 297 297 297 297 297 297 297 297 296 295 294 294
239 240 241 242 244 245 246 247 248 249 249 250 251 253 253 254 255 255 256 256 256 257 260 264 267 268 269 271 273 270 265 265 268 273 277 279 280 280 280 279 277 276 277 279 281 282 283 285 287 289 291 293 295 296 296 296 297 298 299 301 301 301 300 298 296 296 296 296 297 297 297 297 297 297 297 296 296 296 296 297 297 296 296 295 294 294
239 240 241 242 244 245 246 247 247 248 249 250 251 252 253 254 254 254 255 255 256 258 261 264 265 266 267 267 268 266 264 266 271 275 278 278 278 277 276 276 276 277 278 279 279 279 281 283 285 287 289 291 292 293 294 294 295 297 297 298 298 298 298 297 296 297 297 297 297 296 296 296 296 296 296 296 295 296 296 297 297 297 296 295 294 295
240 241 242 243 244 245 246 247 248 249 250 251 252 253 253 253 253 254 254 255 257 259 260 262 263 265 264 260 262 266 267 269 273 275 276 276 276 275 275 275 277 277 277 275 275 277 279 281 283 285 287 288 290 291 292 293 294 296 296 296 297 297 297 296 297 297 297 297 297 296 296 296 296 296 296 296 296 297 297 298 298 297 296 295 295 295
239 240 241 242 243 245 246 247 249 250 250 251 252 252 253 253 254 254 255 256 258 258 260 261 262 264 260 253 260 268 270 271 273 274 275 275 275 275 275 276 276 275 273 272 273 274 277 279 281 283 285 286 288 289 290 291 293 295 295 295 295 296 296 296 297 297 298 297 296 296 296 297 297 298 298 297 297 297 298 297 297 297 296 296 297 297
238 239 241 242 243 245 246 247 248 249 250 250 251 252 254 255 256 256 257 258 258 258 259 260 261 263 258 253 259 268 271 272 273 273 274 275 274 274 274 275 274 273 272 272 272 273 275 277 279 281 283 284 286 287 288 290 292 293 293 294 294 294 295 296 297 297 297 297 296 296 297 298 298 298 298 298 298 298 298 298 298 298 298 299 299 299
240 241 243 244 245 246 247 248 249 250 251 252 253 254 254 255 256 256 256 257 257 257 258 259 261 263 260 257 260 266 270 273 273 273 273 273 273 273 273 273 273 272 271 271 272 273 275 276 277 279 280 282 283 285 288 290 291 292 292 293 293 294 294 295 296 296 297 297 297 297 297 297 298 298 298 298 298 298 298 298 299 300 300 301 301 300
241 242 243 244 245 246 247 248 249 250 250 251 252 253 253 254 254 255 255 256 257 258 259 260 262 263 261 261 262 263 266 269 272 273 272 271 272 272 273 272 271 270 270 271 271 273 274 276 277 278 278 279 281 283 286 288 290 291 292 292 293 293 294 294 296 296 297 297 297 296 296 296 296 296 296 296 297 297 298 298 299 300 300 299 299 299
240 241 242 243 244 245 246 247 248 249 250 251 252 252 253 254 255 256 256 257 259 260 260 261 261 261 261 261 262 263 263 265 268 271 271 271 271 272 273 272 270 269 270 270 271 273 274 275 276 276 277 278 280 282 284 287 289 290 291 291 292 293 293 295 296 296 295 295 295 295 295 294 294 295 295 296 296 296 296 297 297 297 296 296 297 298
240 241 242 243 245 246 247 248 249 251 252 253 253 253 254 255 256 257 258 258 259 259 260 261 261 260 261 262 263 262 261 262 263 267 269 270 270 271 271 271 270 270 271 271 272 273 274 274 275 275 276 278 280 283 285 287 288 289 289 290 291 292 293 294 295 294 294 293 292 292 292 292 293 294 295 295 295 295 294 294 294 294 294 295 297 298
240 241 242 243 244 246 247 248 249 250 252 252 252 253 254 255 256 257 257 258 258 259 260 261 261 262 263 262 262 261 261 260 260 262 265 267 268 269 269 269 270 270 270 271 272 272 273 274 274 275 277 279 282 284 286 287 288 288 289 290 291 292 293 293 293 292 291 290 290 291 291 291 292 293 293 294 293 293 292 292 292 292 294 296 297 297
239 240 241 241 242 244 245 247 249 250 251 251 251 252 253 255 256 257 258 259 260 260 261 261 262 263 263 261 260 260 259 258 258 259 261 263 265 268 269 269 269 269 269 270 270 271 272 273 274 276 278 281 283 285 286 287 288 289 290 291 292 293 293 292 291 291 290 290 290 290 290 290 291 291 291 292 291 291 291 291 291 292 294 296 296 296
239 240 241 241 242 244 245 247 248 249 250 251 252 253 254 255 257 257 259 260 261 261 262 261 261 261 260 259 258 257 256 256 257 257 258 260 262 264 266 267 267 268 269 269 270 271 272 273 274 277 280 282 284 285 286 287 289 290 291 292 292 293 292 291 290 290 290 290 290 290 289 289 290 289 289 290 290 289 290 290 292 293 294 295 295 296
241 241 242 242 243 244 245 246 246 247 249 250 252 253 254 256 257 258 259 260 261 261 261 261 260 259 257 257 256 256 255 256 256 257 258 259 260 261 262 264 265 267 268 269 270 272 273 274 277 279 282 284 285 286 287 288 290 290 291 291 291 290 289 288 288 288 288 289 288 288 288 288 288 288 288 289 289 289 290 291 292 293 293 294 295 296
241 241 242 243 243 244 245 245 246 248 249 251 252 254 255 256 257 258 259 258 258 259 260 261 260 257 254 254 254 254 255 255 256 257 258 258 258 258 260 261 263 265 267 269 270 272 274 277 279 281 283 285 286 286 287 289 290 289 289 288 288 287 287 286 286 286 287 287 288 287 287 288 288 288 288 289 289 289 290 292 292 292 293 293 294 295
242 242 242 243 244 245 245 246 248 249 250 252 253 255 255 256 256 257 257 257 257 258 259 260 261 257 251 251 253 253 254 255 256 257 257 257 258 259 260 261 263 265 266 267 269 272 275 278 280 282 283 285 286 287 288 288 288 288 287 286 286 285 285 285 286 286 287 287 287 287 288 288 288 288 288 288 289 290 290 291 292 292 292 293 293 294
242 243 243 243 243 244 246 247 248 250 251 252 252 253 253 254 254 255 255 256 256 257 258 260 261 258 252 250 252 254 255 257 257 257 257 257 258 259 260 262 263 264 265 267 269 273 276 278 279 281 283 284 285 286 287 287 287 286 286 285 285 285 285 285 286 286 287 287 287 287 287 287 288 288 288 288 289 290 290 291 291 291 291 292 292 293
242 243 243 243 243 244 246 247 248 249 249 249 249 250 251 252 253 254 255 256 257 258 259 261 262 259 254 252 253 254 256 256 257 257 258 258 258 259 260 260 261 263 266 269 272 274 275 277 278 279 280 281 283 284 284 284 284 284 284 284 284 284 285 285 285 286 286 286 286 287 287 287 287 287 288 288 289 290 290 290 290 290 290 291 291 292
243 243 243 244 244 244 245 246 246 247 248 249 249 250 251 252 254 255 255 257 258 259 258 260 260 257 255 256 256 254 255 256 257 258 259 260 260 260 260 261 262 265 268 271 273 274 275 276 277 277 278 279 280 280 280 280 280 280 281 281 281 282 283 283 284 284 285 285 285 286 286 286 286 287 287 288 288 289 289 289 289 289 289 290 291 292
244 244 245 245 245 245 245 246 246 247 248 249 249 250 251 252 253 255 256 258 259 258 258 259 260 258 256 258 259 258 257 257 258 259 260 261 262 262 263 264 267 269 270 271 272 273 274 275 275 276 276 276 276 276 277 277 278 278 279 279 279 280 281 281 282 283 283 284 284 284 284 284 285 286 286 286 287 287 287 287 288 288 289 290 290 291
245 246 246 246 246 246 246 247 247 248 248 249 250 250 251 252 253 255 257 258 259 259 259 260 260 260 259 258 260 261 260 259 259 259 260 261 262 263 265 268 269 270 271 272 272 273 274 274 274 274 274 274 274 275 275 276 276 277 278 278 279 280 281 281 282 283 283 283 283 282 282 283 283 284 284 285 285 286 286 287 288 288 289 289 290 291
246 246 247 247 247 247 247 248 248 248 249 249 250 251 251 252 253 255 256 258 259 260 260 260 260 260 260 259 258 259 259 259 260 261 261 261 262 264 266 268 270 270 271 272 273 273 273 272 272 273 273 274 274 275 275 275 275 276 277 277 278 279 280 281 281 282 282 282 282 282 282 283 283 284 284 285 286 286 287 288 288 289 289 289 290 291
245 246 247 247 248 248 248 249 249 249 249 249 250 250 252 253 254 256 257 257 258 259 260 260 259 259 260 260 259 260 261 261 262 262 263 264 265 266 267 268 268 269 270 271 271 272 272 273 273 274 274 274 275 275 275 275 275 275 276 276 276 277 277 278 279 279 280 281 281 282 282 283 284 284 285 286 286 287 287 288 288 289 289 289 290 290
245 246 247 247 248 249 249 250 251 251 250 250 250 251 253 255 256 256 257 257 258 258 259 259 260 260 260 261 261 262 264 264 263 263 264 265 267 268 268 268 269 269 269 270 271 271 272 273 274 274 274 275 275 275 275 276 275 275 275 275 275 276 276 277 277 278 279 280 281 281 282 283 284 284 285 285 286 286 287 287 287 288 288 289 289 290
247 248 248 249 250 250 250 251 252 252 252 252 252 253 255 256 256 257 257 258 258 259 259 259 260 260 260 261 263 264 264 265 265 265 266 267 268 268 268 268 269 269 270 270 271 271 272 273 273 274 274 274 275 275 275 276 276 276 276 276 276 276 277 277 278 278 279 280 280 281 282 283 284 284 285 285 285 286 286 287 287 287 288 288 289 290
249 249 250 251 251 251 251 252 253 253 253 254 254 255 256 256 256 257 258 259 260 260 261 261 261 261 262 263 263 263 264 266 267 267 267 267 268 268 268 268 269 269 270 271 271 272 272 273 273 274 274 275 275 275 276 276 276 276 276 277 277 277 278 278 279 279 279 280 280 281 282 282 283 284 284 285 285 286 286 287 287 287 288 288 289 290
250 251 251 252 253 253 253 253 253 254 255 256 256 256 256 256 257 257 258 259 260 261 262 262 262 263 263 264 264 265 266 267 267 268 268 267 268 268 268 268 269 269 270 271 271 272 272 273 273 274 274 275 275 275 276 276 276 277 277 277 277 278 278 278 279 279 279 279 280 281 281 282 283 283 284 284 285 285 285 286 286 287 287 288 289 289
252 252 253 253 254 254 254 254 255 255 256 257 257 258 258 258 259 259 259 259 260 261 262 263 263 263 264 264 265 266 266 267 267 268 268 269 269 269 269 269 270 270 270 271 271 271 272 272 273 273 274 274 275 275 275 275 276 276 276 276 277 277 277 278 278 278 279 279 280 280 281 281 282 283 283 283 284 284 284 285 285 286 286 287 287 287
251 252 253 254 254 255 255 256 256 256 256 257 258 259 260 261 261 261 261 260 261 262 262 263 264 264 264 264 265 265 266 266 267 268 268 269 269 270 270 270 270 270 270 271 271 271 271 272 272 272 273 273 274 274 275 275 275 276 276 276 276 277 277 277 277 278 278 279 279 280 280 280 281 281 282 283 283 284 284 285 285 285 285 285 285 285
251 252 253 254 254 255 255 256 257 257 257 258 259 261 261 262 262 262 262 262 262 263 264 265 265 266 266 266 266 266 266 267 267 268 268 269 269 269 269 270 270 270 270 270 270 270 271 271 271 272 272 272 273 273 274 274 275 275 276 276 276 277 277 277 277 278 278 279 279 279 280 280 281 281 282 283 283 284 284 284 284 284 284 283 283 283
250 251 252 253 254 254 256 257 257 258 258 259 259 260 261 262 262 262 263 263 263 264 265 265 266 266 266 267 267 267 267 267 268 268 268 268 268 269 269 269 269 269 270 270 270 270 270 270 271 271 271 271 272 272 273 273 274 274 275 275 276 276 276 277 277 278 278 278 279 279 280 280 281 281 282 282 282 283 283 283 283 282 282 282 282 281
251 251 252 253 254 255 256 257 258 258 259 259 259 260 260 261 261 262 263 264 265 265 266 266 266 266 267 267 268 268 268 268 268 268 268 268 269 269 269 269 269 269 269 270 270 269 269 270 270 270 271 271 271 272 272 273 273 274 274 275 275 276 276 277 277 278 278 278 279 279 279 279 279 280 280 280 280 280 281 281 281 281 281 281 281 281
251 251 252 253 254 255 256 257 258 258 259 259 260 260 261 261 262 263 264 264 265 265 265 265 266 266 267 267 268 268 268 268 268 268 269 269 269 269 269 269 269 269 269 270 270 270 271 271 271 271 271 272 272 273 273 274 274 274 275 275 275 276 276 277 277 277 277 277 277 277 277 277 278 278 278 278 278 278 279 279 279 279 279 279 279 280
250 251 252 253 254 255 256 257 258 258 259 260 260 261 261 261 262 263 264 264 264 264 264 265 265 266 266 267 267 268 268 268 269 269 269 269 269 269 269 269 269 269 269 270 270 271 271 272 272 273 273 273 273 273 274 274 274 274 274 274 274 274 275 275 275 275 275 275 276 276 276 276 276 276 276 276 276 277 277 277 277 277 278 278 278 279
250 251 251 252 253 255 256 257 258 259 259 259 259 259 260 260 261 262 263 263 264 264 265 265 266 266 266 267 267 267 268 268 269 270 270 270 270 270 270 270 270 270 270 270 270 270 270 270 271 272 272 273 273 273 273 273 272 272 273 272 272 272 273 273 274 274 274 274 274 274 275 275 275 275 276 276 276 277 277 277 277 277 278 278 278 279
252 253 253 253 254 255 256 256 258 259 258 258 258 259 260 260 261 262 262 262 263 263 264 264 264 265 266 266 267 267 268 268 269 270 271 272 272 272 272 272 272 272 272 272 272 272 271 271 271 271 271 272 272 272 272 272 271 271 271 271 272 272 272 273 273 273 273 273 274 274 275 275 276 276 277 278 278 279 279 279 279 280 280 280 281 282
253 254 254 254 254 255 256 257 257 258 259 259 259 259 260 261 261 261 261 262 262 262 263 263 264 264 265 266 266 267 268 269 269 270 271 271 272 272 272 272 272 272 272 272 272 272 272 271 271 271 271 272 273 273 273 273 272 272 272 272 272 272 273 273 273 274 274 275 276 276 277 278 279 280 280 281 282 282 283 283 283 284 284 284 285 285
251 252 253 254 255 255 256 258 259 260 261 261 260 260 260 261 261 262 262 262 263 263 264 264 265 265 265 266 266 267 268 268 269 270 270 271 271 271 272 272 272 272 272 272 272 272 272 272 272 272 272 273 274 274 275 275 275 274 274 274 275 276 276 277 277 278 279 280 280 281 282 282 283 283 284 284 285 285 285 286 286 286 286 286 286 286
251 251 252 253 254 255 256 257 258 259 259 259 259 259 259 260 261 261 262 263 264 264 265 265 266 266 266 267 267 268 268 269 269 270 271 272 273 273 274 275 275 275 276 276 276 276 276 275 275 275 275 276 276 277 278 278 278 278 278 278 279 280 281 282 283 283 284 284 284 284 284 284 285 285 285 285 285 285 286 286 286 286 286 286 286 286
254 254 254 255 255 256 257 258 259 259 260 260 260 260 260 260 260 261 262 263 264 266 267 267 268 269 269 269 270 271 272 272 273 274 274 275 276 277 278 279 279 280 280 281 281 281 281 281 280 280 280 280 281 282 282 283 283 283 283 283 283 283 283 284 284 284 284 284 284 284 284 283 283 283 283 284 284 284 284 284 284 284 284 284 284 284
257 258 258 259 260 260 261 263 264 264 264 265 264 263 263 263 264 265 265 266 268 269 270 271 271 272 273 273 274 275 275 276 277 277 278 278 279 279 280 281 281 281 282 282 282 282 282 282 282 282 282 282 282 282 282 283 283 283 283 283 283 282 283 283 283 283 283 283 283 282 282 282 282 282 282 282 282 283 283 283 283 283 283 283 283 283
259 260 261 261 262 262 263 263 264 264 265 266 266 267 267 267 268 269 269 270 271 271 272 273 273 274 275 275 276 276 277 277 277 278 278 279 279 280 280 280 280 281 281 281 281 281 281 281 281 281 281 281 281 281 281 281 281 281 281 281 281 281 282 282 282 282 281 281 281 281 281 281 281 281 281 281 281 281 281 281 281 281 281 281 281 281
258 259 259 260 260 261 262 262 262 263 264 265 265 266 267 267 268 269 269 270 270 271 272 272 273 274 274 275 275 276 276 276 277 277 278 278 279 279 279 280 280 280 280 280 281 281 281 281 281 281 281 281 281 281 281 281 281 281 281 281 281 281 281 281 281 281 281 280 280 280 280 280 280 280 280 280 280 280 279 279 279 279 279 279 280 280
Height
10757 10761 10765 10766 10766 10769 10773 10777 10783 10787 10788 10790 10792 10794 10796 10797 10799 10801 10803 10806 10806 10807 10810 10812 10811 10810 10812 10815 10816 10817 10815 10814 10816 10817 10817 10816 10815 10814 10813 10814 10813 10813 10813 10812 10812 10812 10812 10812 10811 10811 10810 10809 10808 10807 10805 10804 10802 10801 10801 10801 10800 10798 10797 10796 10794 10792 10791 10789 10788 10786 10785 10784 10783 10783 10782 10780 10778 10776 10775 10773 10772 10771 10770 10768 10766 10764
10752 10756 10757 10758 10761 10765 10769 10773 10778 10781 10781 10784 10786 10789 10791 10792 10795 10797 10799 10801 10802 10803 10805 10808 10807 10804 10807 10811 10812 10813 10811 10810 10812 10812 10812 10812 10812 10810 10810 10810 10809 10809 10809 10809 10809 10809 10809 10809 10808 10808 10807 10806 10806 10805 10804 10802 10800 10799 10798 10798 10797 10796 10795 10793 10792 10790 10788 10786 10784 10782 10781 10779 10778 10776 10775 10774 10773 10772 10770 10769 10768 10767 10766 10764 10763 10761
10747 10748 10748 10753 10758 10761 10764 10767 10771 10774 10775 10778 10780 10783 10787 10788 10790 10792 10795 10796 10798 10799 10802 10804 10803 10799 10802 10806 10808 10809 10807 10806 10807 10807 10807 10808 10808 10807 10806 10806 10806 10805 10805 10806 10806 10806 10806 10806 10805 10805 10804 10803 10802 10802 10801 10800 10798 10796 10795 10794 10794 10793 10792 10791 10789 10788 10786 10784 10782 10779 10778 10776 10773 10772 10770 10769 10768 10766 10765 10764 10763 10762 10761 10760 10758 10757
10739 10740 10743 10750 10753 10755 10759 10762 10765 10768 10769 10772 10774 10778 10782 10784 10785 10787 10789 10791 10793 10796 10799 10801 10799 10794 10797 10801 10803 10805 10804 10802 10801 10801 10802 10804 10803 10802 10801 10801 10802 10801 10801 10801 10801 10802 10802 10802 10802 10802 10801 10799 10798 10798 10798 10797 10795 10793 10792 10791 10790 10790 10789 10788 10786 10785 10783 10781 10779 10777 10775 10773 10770 10768 10766 10764 10763 10762 10760 10759 10758 10757 10756 10755 10753 10751
10732 10735 10740 10745 10747 10750 10754 10756 10758 10761 10763 10765 10768 10772 10776 10778 10780 10781 10783 10786 10788 10793 10795 10797 10797 10791 10792 10796 10797 10799 10801 10799 10797 10795 10796 10799 10798 10797 10797 10797 10798 10797 10796 10797 10797 10797 10797 10798 10798 10798 10798 10796 10795 10794 10793 10793 10792 10790 10789 10788 10787 10786 10784 10783 10782 10781 10779 10777 10776 10774 10772 10770 10767 10765 10763 10761 10759 10758 10757 10755 10753 10752 10751 10749 10748 10746
10727 10731 10736 10738 10740 10743 10747 10749 10751 10754 10757 10760 10763 10766 10769 10773 10776 10777 10778 10780 10785 10789 10790 10792 10795 10790 10787 10791 10791 10794 10796 10795 10794 10791 10790 10793 10793 10792 10792 10793 10794 10792 10791 10792 10792 10793 10793 10793 10793 10793 10793 10792 10791 10790 10789 10788 10787 10786 10785 10784 10783 10781 10780 10779 10777 10776 10774 10773 10771 10769 10767 10766 10764 10762 10760 10758 10756 10754 10753 10751 10750 10748 10746 10744 10743 10741
10722 10726 10729 10731 10734 10736 10739 10742 10744 10747 10750 10754 10757 10760 10763 10767 10770 10772 10773 10775 10780 10784 10785 10787 10791 10787 10783 10785 10787 10789 10791 10790 10789 10786 10785 10787 10787 10786 10787 10788 10789 10787 10787 10787 10787 10788 10788 10788 10788 10788 10788 10787 10786 10785 10784 10783 10783 10782 10781 10780 10779 10777 10775 10773 10772 10770 10769 10767 10766 10764 10763 10761 10760 10758 10756 10754 10752 10751 10749 10746 10745 10743 10742 10740 10737 10736
10715 10718 10721 10723 10726 10728 10732 10735 10738 10741 10745 10749 10752 10754 10758 10760 10763 10766 10768 10770 10774 10777 10780 10783 10785 10784 10780 10778 10781 10786 10787 10784 10781 10780 10781 10782 10781 10780 10781 10783 10784 10783 10783 10782 10782 10783 10783 10783 10783 10782 10783 10782 10781 10780 10779 10778 10777 10777 10776 10776 10775 10773 10771 10769 10766 10765 10763 10762 10761 10759 10758 10756 10755 10753 10751 10750 10748 10747 10745 10742 10740 10738 10736 10735 10733 10731
10706 10710 10713 10717 10720 10723 10726 10729 10733 10736 10740 10743 10745 10747 10751 10753 10756 10760 10762 10766 10769 10772 10776 10776 10777 10783 10780 10770 10773 10782 10781 10776 10774 10774 10776 10777 10775 10775 10775 10777 10778 10778 10778 10778 10778 10779 10778 10778 10777 10777 10777 10777 10776 10775 10774 10774 10773 10772 10771 10771 10770 10768 10766 10764 10762 10760 10758 10757 10756 10754 10753 10751 10750 10748 10746 10745 10744 10742 10740 10737 10735 10733 10731 10729 10727 10726
10700 10704 10708 10711 10714 10717 10720 10723 10726 10729 10733 10736 10737 10741 10744 10746 10750 10753 10756 10760 10763 10768 10772 10769 10769 10779 10780 10767 10765 10775 10773 10768 10768 10770 10771 10770 10770 10770 10769 10770 10771 10772 10774 10774 10774 10773 10772 10772 10771 10771 10771 10771 10771 10770 10769 10769 10768 10767 10767 10765 10765 10763 10761 10759 10757 10755 10753 10753 10751 10750 10748 10746 10745 10743 10741 10740 10738 10737 10735 10732 10730 10728 10726 10723 10722 10720
10694 10697 10701 10705 10707 10710 10712 10715 10719 10722 10726 10728 10730 10734 10736 10740 10743 10746 10751 10752 10757 10765 10766 10762 10762 10773 10781 10767 10757 10764 10765 10762 10763 10764 10764 10763 10764 10764 10763 10763 10764 10767 10769 10769 10768 10767 10766 10767 10765 10765 10765 10764 10764 10764 10763 10763 10763 10763 10762 10760 10759 10757 10756 10754 10752 10751 10749 10748 10747 10745 10743 10741 10739 10738 10736 10734 10733 10731 10729 10727 10724 10722 10720 10718 10716 10715
10688 10691 10695 10698 10700 10702 10704 10708 10711 10715 10719 10721 10724 10727 10729 10733 10736 10739 10744 10746 10753 10759 10758 10756 10756 10767 10780 10765 10750 10755 10758 10757 10757 10756 10757 10756 10756 10757 10756 10757 10759 10762 10764 10763 10762 10760 10760 10761 10760 10758 10758 10758 10758 10757 10757 10757 10757 10757 10756 10754 10753 10751 10750 10749 10747 10746 10744 10743 10741 10739 10737 10735 10734 10732 10730 10728 10726 10724 10722 10720 10717 10715 10713 10711 10710 10709
10680 10682 10686 10689 10692 10695 10697 10700 10704 10708 10712 10714 10715 10717 10720 10725 10728 10733 10738 10740 10747 10751 10750 10750 10749 10761 10775 10761 10749 10751 10748 10749 10752 10748 10748 10749 10749 10749 10749 10752 10754 10755 10756 10756 10756 10755 10754 10754 10753 10752 10751 10751 10751 10751 10751 10751 10750 10750 10749 10748 10747 10746 10745 10743 10743 10741 10739 10737 10735 10733 10731 10729 10728 10726 10724 10722 10719 10717 10715 10713 10710 10708 10706 10705 10703 10702
10671 10674 10678 10683 10686 10688 10690 10693 10696 10699 10701 10704 10707 10710 10714 10718 10723 10728 10731 10733 10738 10741 10743 10744 10743 10755 10766 10757 10752 10749 10737 10738 10744 10742 10740 10741 10742 10743 10743 10745 10748 10748 10748 10748 10748 10748 10748 10747 10747 10746 10745 10744 10744 10744 10744 10744 10744 10743 10742 10741 10741 10740 10739 10738 10737 10736 10734 10732 10729 10727 10725 10723 10721 10719 10717 10714 10712 10709 10707 10705 10703 10701 10700 10698 10697 10695
10667 10671 10675 10677 10679 10681 10682 10684 10687 10689 10693 10697 10701 10704 10709 10712 10715 10719 10720 10722 10727 10731 10736 10739 10741 10750 10755 10750 10751 10748 10734 10727 10731 10734 10734 10733 10733 10735 10737 10739 10740 10740 10740 10740 10740 10740 10740 10740 10740 10740 10739 10739 10738 10737 10737 10737 10737 10736 10735 10735 10734 10733 10733 10732 10731 10730 10728 10726 10724 10721 10719 10717 10715 10712 10710 10707 10705 10702 10699 10697 10695 10693 10693 10691 10689 10687
10661 10666 10668 10667 10669 10672 10673 10674 10677 10681 10685 10690 10693 10697 10701 10702 10704 10707 10710 10714 10718 10723 10730 10735 10740 10745 10744 10742 10745 10744 10735 10725 10721 10723 10724 10725 10726 10726 10730 10733 10733 10731 10731 10731 10732 10732 10732 10733 10732 10732 10732 10732 10732 10731 10731 10730 10729 10728 10728 10727 10726 10726 10725 10725 10725 10724 10722 10720 10717 10715 10712 10710 10708 10705 10703 10701 10699 10696 10693 10690 10689 10687 10685 10683 10681 10679
10652 10655 10656 10656 10659 10661 10662 10665 10668 10671 10676 10681 10686 10691 10692 10692 10694 10698 10703 10708 10709 10714 10722 10728 10734 10737 10734 10735 10738 10736 10733 10726 10718 10715 10714 10716 10719 10719 10721 10723 10722 10722 10722 10723 10723 10724 10724 10724 10723 10723 10723 10724 10724 10724 10724 10724 10723 10722 10721 10720 10720 10719 10718 10718 10718 10716 10714 10712 10709 10707 10705 10703 10700 10698 10696 10695 10692 10689 10686 10684 10681 10679 10677 10675 10674 10673
10643 10645 10647 10649 10651 10653 10655 10658 10662 10666 10670 10675 10680 10683 10683 10684 10687 10689 10694 10699 10701 10705 10713 10719 10724 10727 10728 10731 10731 10728 10727 10722 10715 10712 10709 10708 10710 10712 10713 10712 10711 10712 10713 10714 10715 10715 10715 10714 10713 10713 10713 10715 10716 10716 10716 10716 10716 10715 10714 10714 10714 10713 10712 10711 10710 10708 10706 10705 10702 10700 10698 10695 10693 10691 10689 10687 10685 10682 10678 10676 10673 10670 10669 10668 10667 10666
10633 10636 10640 10643 10644 10645 10647 10649 10655 10660 10663 10667 10671 10672 10672 10675 10678 10679 10681 10687 10691 10695 10704 10711 10715 10719 10724 10725 10722 10720 10719 10715 10709 10708 10708 10705 10701 10702 10703 10702 10703 10703 10703 10704 10705 10705 10704 10703 10703 10702 10704 10706 10707 10708 10708 10707 10708 10707 10707 10707 10707 10706 10705 10704 10702 10700 10698 10697 10695 10693 10691 10688 10686 10684 10681 10680 10677 10674 10670 10667 10664 10661 10660 10659 10659 10657
10622 10624 10629 10634 10635 10634 10637 10642 10650 10654 10654 10655 10658 10660 10662 10665 10668 10670 10672 10677 10682 10687 10696 10704 10708 10715 10717 10714 10713 10713 10709 10705 10703 10702 10703 10702 10698 10695 10693 10693 10693 10693 10694 10694 10695 10695 10695 10694 10693 10693 10694 10697 10698 10699 10700 10699 10699 10699 10699 10699 10698 10697 10696 10694 10691 10690 10689 10688 10686 10685 10682 10680 10678 10676 10674 10671 10668 10665 10661 10658 10655 10652 10651 10650 10649 10647
10611 10615 10620 10626 10626 10628 10634 10640 10644 10643 10641 10643 10647 10651 10656 10658 10660 10662 10664 10669 10674 10678 10686 10694 10703 10712 10709 10702 10703 10704 10700 10697 10697 10697 10697 10697 10695 10691 10687 10684 10682 10682 10683 10683 10684 10685 10686 10685 10684 10684 10686 10688 10690 10690 10691 10691 10691 10691 10690 10690 10689 10687 10685 10683 10680 10679 10679 10678 10677 10676 10673 10671 10670 10668 10666 10663 10660 10656 10653 10650 10647 10644 10641 10640 10638 10638
10604 10609 10612 10616 10619 10625 10630 10630 10629 10629 10631 10636 10639 10644 10649 10651 10652 10654 10657 10664 10665 10667 10675 10682 10694 10708 10702 10691 10693 10693 10691 10691 10690 10690 10690 10689 10689 10686 10681 10677 10675 10674 10673 10672 10673 10674 10674 10675 10675 10675 10678 10679 10681 10682 10682 10683 10683 10683 10683 10681 10680 10678 10676 10673 10671 10670 10669 10668 10668 10666 10664 10663 10661 10658 10657 10655 10652 10648 10644 10642 10639 10635 10632 10629 10628 10628
10593 10596 10602 10606 10612 10618 10617 10616 10620 10624 10626 10629 10633 10640 10643 10643 10645 10646 10649 10654 10653 10656 10666 10669 10684 10704 10696 10682 10682 10683 10683 10685 10683 10683 10683 10680 10679 10676 10673 10672 10669 10668 10666 10664 10664 10663 10664 10666 10667 10667 10669 10670 10671 10672 10673 10674 10675 10675 10674 10672 10671 10669 10666 10664 10663 10662 10661 10659 10658 10656 10655 10654 10651 10648 10647 10645 10642 10639 10636 10633 10630 10626 10623 10619 10618 10618
10582 10587 10596 10601 10605 10607 10607 10610 10616 10619 10621 10626 10631 10635 10635 10634 10636 10634 10635 10640 10640 10648 10658 10657 10672 10697 10690 10674 10673 10673 10675 10677 10675 10675 10673 10670 10668 10666 10664 10665 10664 10662 10660 10657 10656 10657 10659 10660 10660 10660 10660 10661 10661 10662 10664 10665 10665 10665 10664 10662 10661 10659 10656 10654 10653 10652 10651 10650 10648 10646 10644 10643 10641 10638 10636 10633 10632 10631 10628 10625 10621 10616 10613 10610 10607 10607
10574 10578 10586 10591 10594 10597 10600 10605 10612 10616 10618 10621 10623 10623 10622 10622 10622 10620 10623 10627 10629 10642 10651 10648 10663 10686 10682 10669 10667 10664 10666 10669 10666 10664 10662 10660 10659 10657 10657 10657 10655 10652 10651 10651 10653 10655 10657 10657 10656 10655 10654 10652 10652 10652 10653 10654 10653 10653 10651 10649 10648 10646 10644 10642 10641 10641 10640 10638 10637 10635 10633 10631 10629 10628 10625 10622 10621 10620 10619 10617 10613 10608 10604 10600 10597 10596
10562 10567 10574 10579 10584 10591 10597 10602 10606 10607 10603 10604 10608 10610 10610 10609 10608 10610 10612 10613 10623 10639 10643 10640 10657 10673 10669 10662 10662 10659 10656 10657 10655 10652 10650 10649 10648 10648 10648 10646 10644 10644 10644 10647 10650 10652 10653 10653 10654 10653 10650 10647 10646 10645 10644 10644 10643 10641 10640 10637 10635 10633 10631 10630 10629 10630 10629 10627 10626 10624 10622 10619 10618 10617 10614 10612 10611 10610 10609 10606 10603 10599 10595 10591 10588 10585
10552 10558 10564 10569 10575 10584 10590 10590 10591 10590 10588 10592 10600 10602 10600 10599 10599 10600 10600 10607 10622 10631 10629 10634 10647 10655 10657 10655 10651 10648 10646 10645 10645 10643 10640 10639 10636 10634 10634 10633 10635 10640 10643 10644 10646 10647 10647 10648 10648 10647 10646 10643 10640 10638 10637 10637 10635 10633 10631 10630 10626 10623 10621 10619 10619 10620 10619 10617 10617 10615 10611 10608 10607 10607 10605 10603 10601 10600 10598 10596 10593 10590 10586 10582 10579 10575
10543 10548 10554 10561 10566 10571 10575 10576 10578 10580 10581 10584 10589 10589 10588 10589 10590 10590 10594 10606 10615 10611 10615 10630 10633 10634 10649 10651 10635 10631 10636 10637 10635 10632 10631 10629 10623 10618 10619 10624 10632 10637 10637 10636 10637 10640 10641 10641 10639 10638 10638 10636 10633 10631 10630 10629 10628 10625 10624 10622 10618 10616 10614 10611 10611 10612 10611 10609 10609 10606 10602 10599 10598 10597 10595 10593 10591 10589 10587 10585 10582 10580 10576 10572 10569 10565
10534 10537 10544 10549 10552 10556 10562 10564 10568 10571 10571 10572 10574 10577 10579 10580 10582 10586 10592 10600 10599 10594 10606 10622 10616 10617 10639 10642 10623 10616 10621 10623 10621 10620 10620 10617 10611 10608 10612 10620 10626 10626 10624 10625 10627 10631 10632 10629 10627 10626 10626 10625 10624 10623 10624 10622 10620 10618 10616 10614 10610 10607 10604 10602 10602 10602 10600 10599 10598 10594 10591 10589 10588 10587 10585 10583 10580 10577 10575 10573 10571 10569 10565 10561 10557 10554
10522 10526 10531 10536 10539 10543 10547 10552 10557 10559 10558 10560 10563 10564 10568 10572 10578 10583 10587 10589 10586 10584 10596 10605 10600 10606 10623 10623 10612 10604 10602 10606 10609 10609 10606 10602 10600 10606 10612 10616 10616 10614 10613 10614 10614 10616 10616 10614 10613 10614 10614 10614 10613 10613 10614 10614 10613 10612 10610 10608 10604 10601 10598 10595 10593 10591 10588 10586 10584 10581 10579 10578 10576 10574 10573 10571 10568 10565 10563 10561 10559 10557 10553 10549 10546 10543
10509 10514 10518 10523 10525 10528 10535 10540 10543 10544 10545 10547 10549 10553 10561 10569 10574 10577 10579 10579 10574 10575 10583 10583 10582 10597 10609 10602 10595 10593 10590 10593 10600 10598 10592 10588 10591 10600 10607 10609 10607 10605 10603 10602 10600 10599 10599 10599 10599 10601 10601 10600 10600 10601 10602 10603 10603 10603 10602 10600 10596 10593 10591 10589 10586 10581 10578 10575 10571 10568 10567 10565 10564 10562 10561 10558 10555 10553 10551 10549 10547 10544 10540 10537 10534 10531
10498 10502 10508 10512 10511 10517 10528 10528 10527 10531 10531 10530 10538 10552 10562 10566 10566 10567 10566 10564 10562 10564 10567 10564 10567 10587 10595 10583 10580 10587 10584 10580 10584 10586 10582 10581 10584 10589 10593 10595 10595 10593 10590 10589 10588 10587 10587 10587 10587 10587 10587 10586 10585 10586 10587 10589 10591 10591 10590 10588 10585 10582 10580 10579 10576 10573 10569 10564 10560 10557 10555 10553 10552 10551 10549 10547 10544 10541 10540 10537 10535 10532 10528 10526 10523 10520
10489 10494 10501 10503 10500 10509 10520 10516 10515 10515 10508 10514 10540 10556 10556 10553 10554 10553 10549 10550 10553 10551 10549 10550 10558 10572 10577 10572 10574 10579 10572 10564 10567 10572 10574 10575 10575 10576 10577 10579 10580 10579 10577 10575 10576 10576 10575 10575 10574 10573 10573 10572 10572 10572 10573 10573 10575 10576 10575 10573 10571 10569 10567 10566 10564 10561 10558 10554 10549 10547 10544 10542 10541 10539 10536 10534 10531 10529 10527 10524 10522 10518 10515 10513 10511 10508
10479 10484 10490 10490 10488 10496 10505 10504 10500 10491 10489 10514 10544 10546 10538 10539 10540 10537 10537 10541 10541 10535 10532 10538 10547 10556 10561 10562 10562 10563 10560 10556 10554 10558 10563 10564 10562 10561 10562 10563 10564 10566 10566 10564 10563 10562 10562 10562 10562 10561 10560 10559 10559 10559 10558 10558 10559 10560 10560 10558 10556 10555 10553 10552 10551 10548 10545 10542 10538 10535 10533 10530 10529 10526 10523 10521 10518 10516 10514 10511 10507 10504 10501 10500 10498 10496
10469 10473 10476 10477 10477 10481 10487 10487 10480 10476 10492 10518 10528 10522 10522 10527 10525 10523 10527 10531 10528 10521 10519 10523 10533 10543 10548 10547 10546 10549 10551 10548 10542 10542 10547 10548 10547 10547 10548 10549 10550 10552 10554 10554 10552 10550 10549 10548 10548 10547 10546 10546 10545 10545 10544 10544 10545 10546 10546 10543 10541 10540 10539 10538 10538 10535 10531 10529 10526 10523 10520 10518 10515 10513 10510 10508 10506 10504 10502 10498 10495 10492 10488 10486 10485 10483
10459 10461 10462 10464 10464 10465 10468 10468 10467 10474 10493 10504 10503 10505 10511 10513 10511 10510 10511 10514 10514 10510 10508 10511 10520 10530 10532 10532 10534 10536 10536 10534 10529 10527 10529 10531 10532 10533 10534 10536 10537 10537 10539 10540 10540 10539 10538 10536 10535 10534 10533 10532 10530 10530 10530 10530 10531 10532 10532 10529 10526 10525 10525 10524 10523 10519 10516 10515 10515 10512 10508 10505 10502 10500 10497 10494 10493 10491 10489 10485 10483 10480 10477 10474 10472 10470
10447 10448 10449 10450 10450 10451 10452 10454 10457 10463 10475 10488 10495 10498 10500 10499 10497 10491 10488 10495 10501 10499 10498 10502 10506 10511 10514 10516 10520 10522 10521 10520 10518 10516 10517 10517 10517 10518 10520 10521 10522 10523 10523 10524 10525 10526 10525 10524 10523 10521 10520 10518 10516 10514 10514 10515 10514 10515 10516 10514 10511 10510 10511 10510 10507 10504 10502 10502 10501 10498 10496 10493 10491 10488 10484 10481 10479 10477 10474 10472 10470 10467 10464 10462 10460 10457
10434 10435 10437 10435 10435 10437 10437 10438 10443 10446 10462 10486 10492 10486 10485 10484 10477 10470 10469 10479 10488 10487 10487 10490 10491 10492 10495 10497 10502 10506 10507 10506 10506 10504 10504 10506 10505 10505 10506 10507 10507 10509 10509 10509 10510 10511 10511 10511 10511 10508 10506 10505 10502 10500 10499 10500 10500 10500 10500 10499 10496 10495 10496 10494 10492 10491 10490 10488 10486 10483 10481 10480 10477 10475 10472 10468 10465 10462 10460 10458 10456 10453 10451 10449 10447 10445
10421 10422 10424 10419 10418 10424 10427 10427 10430 10435 10455 10478 10479 10472 10473 10468 10457 10452 10451 10460 10475 10478 10475 10475 10474 10474 10477 10479 10484 10489 10489 10492 10494 10490 10487 10491 10493 10492 10493 10494 10494 10494 10494 10494 10496 10497 10498 10498 10497 10494 10492 10490 10489 10488 10487 10487 10488 10487 10485 10484 10482 10482 10481 10479 10478 10477 10476 10474 10471 10469 10467 10465 10463 10461 10459 10455 10452 10449 10446 10444 10442 10439 10437 10435 10433 10431
10409 10410 10410 10406 10407 10415 10416 10414 10417 10425 10445 10463 10461 10459 10460 10449 10438 10435 10437 10450 10466 10464 10458 10460 10458 10457 10461 10464 10466 10470 10470 10474 10478 10475 10472 10477 10480 10477 10478 10480 10479 10479 10479 10479 10479 10482 10484 10484 10483 10481 10478 10475 10474 10475 10474 10474 10475 10474 10472 10470 10469 10467 10466 10464 10463 10462 10460 10459 10457 10455 10453 10451 10449 10447 10445 10443 10440 10437 10434 10432 10428 10426 10424 10421 10419 10417
10393 10395 10396 10396 10399 10402 10401 10401 10405 10415 10433 10446 10444 10445 10445 10432 10420 10422 10430 10442 10448 10443 10443 10446 10441 10441 10448 10450 10450 10453 10454 10455 10460 10460 10460 10463 10464 10463 10462 10462 10463 10463 10463 10463 10463 10465 10467 10468 10468 10467 10464 10461 10460 10460 10460 10460 10460 10459 10457 10456 10454 10453 10451 10450 10449 10447 10445 10444 10443 10441 10439 10437 10435 10433 10431 10429 10427 10425 10422 10419 10416 10414 10411 10409 10406 10404
10382 10384 10384 10385 10388 10390 10390 10389 10389 10401 10424 10434 10428 10428 10428 10415 10406 10413 10422 10425 10423 10424 10429 10430 10426 10429 10435 10436 10437 10440 10439 10440 10443 10445 10446 10448 10450 10451 10448 10447 10448 10448 10448 10450 10450 10450 10452 10454 10453 10451 10449 10446 10445 10446 10447 10447 10446 10444 10443 10441 10440 10439 10438 10436 10434 10433 10432 10430 10429 10427 10425 10423 10421 10419 10417 10415 10413 10411 10409 10406 10403 10401 10398 10395 10393 10390
10369 10368 10369 10375 10380 10380 10378 10375 10375 10392 10416 10420 10410 10408 10408 10399 10396 10404 10408 10407 10408 10412 10414 10414 10415 10417 10418 10420 10424 10424 10424 10426 10427 10429 10432 10433 10434 10436 10436 10435 10435 10435 10435 10437 10437 10437 10439 10442 10442 10439 10436 10432 10430 10430 10431 10433 10433 10432 10429 10427 10426 10425 10425 10424 10421 10420 10419 10417 10415 10413 10411 10409 10407 10405 10403 10400 10398 10396 10394 10391 10388 10386 10383 10381 10378 10375
10354 10356 10360 10368 10371 10366 10363 10364 10370 10382 10396 10397 10394 10394 10392 10387 10387 10391 10392 10393 10397 10399 10400 10401 10402 10403 10404 10407 10408 10409 10411 10413 10414 10416 10418 10419 10419 10422 10423 10422 10422 10422 10422 10422 10422 10422 10424 10427 10428 10427 10424 10420 10416 10414 10415 10417 10418 10418 10416 10412 10411 10411 10410 10409 10407 10406 10404 10402 10401 10399 10396 10394 10392 10389 10387 10384 10381 10379 10377 10374 10371 10368 10366 10364 10361 10358
10345 10348 10349 10352 10354 10351 10351 10355 10361 10368 10375 10380 10384 10383 10377 10374 10375 10376 10377 10380 10383 10384 10386 10386 10387 10390 10392 10393 10394 10395 10398 10399 10401 10404 10405 10407 10408 10408 10408 10409 10409 10408 10408 10408 10407 10407 10409 10411 10413 10412 10411 10407 10401 10397 10399 10400 10400 10402 10402 10398 10395 10395 10395 10393 10392 10390 10388 10386 10384 10382 10380 10377 10375 10372 10369 10366 10364 10361 10358 10356 10353 10350 10348 10346 10343 10341
10335 10337 10336 10336 10338 10340 10342 10347 10353 10358 10362 10365 10367 10367 10364 10361 10360 10360 10363 10367 10369 10370 10371 10372 10373 10375 10377 10378 10381 10384 10385 10386 10389 10391 10391 10393 10394 10393 10392 10394 10394 10393 10393 10393 10391 10390 10391 10394 10395 10395 10396 10395 10388 10382 10382 10383 10383 10383 10385 10383 10379 10378 10377 10376 10374 10372 10370 10368 10367 10364 10362 10360 10357 10354 10351 10348 10346 10343 10340 10338 10335 10333 10330 10328 10326 10324
10324 10326 10326 10326 10326 10329 10334 10340 10343 10344 10345 10348 10349 10350 10350 10349 10346 10347 10351 10354 10355 10356 10357 10357 10358 10359 10361 10363 10367 10370 10371 10372 10373 10375 10376 10377 10376 10376 10375 10376 10377 10377 10375 10374 10374 10373 10374 10375 10377 10377 10378 10378 10374 10368 10366 10367 10365 10364 10364 10365 10362 10360 10359 10358 10356 10355 10353 10351 10349 10347 10344 10342 10340 10337 10334 10331 10329 10326 10324 10321 10319 10316 10314 10311 10309 10307
10310 10310 10311 10312 10314 10318 10323 10327 10328 10328 10329 10331 10332 10332 10333 10334 10333 10334 10337 10339 10341 10342 10342 10342 10341 10342 10345 10348 10351 10354 10355 10355 10355 10358 10360 10359 10358 10358 10358 10358 10360 10360 10358 10356 10355 10355 10356 10358 10359 10359 10359 10359 10357 10352 10350 10350 10348 10345 10345 10346 10344 10342 10342 10341 10339 10337 10336 10334 10332 10329 10327 10325 10323 10321 10318 10315 10312 10309 10307 10304 10302 10299 10297 10295 10293 10290
10294 10295 10297 10301 10304 10307 10310 10313 10313 10313 10312 10311 10310 10312 10316 10318 10319 10319 10321 10324 10326 10327 10327 10327 10327 10328 10329 10331 10333 10336 10338 10338 10338 10340 10342 10343 10342 10342 10342 10343 10344 10344 10344 10342 10340 10340 10341 10342 10342 10343 10344 10343 10341 10338 10337 10335 10332 10329 10328 10328 10326 10325 10325 10324 10322 10320 10318 10317 10315 10312 10309 10307 10305 10303 10301 10298 10295 10292 10290 10287 10285 10282 10280 10278 10276 10273
10282 10285 10289 10291 10290 10293 10298 10300 10297 10295 10295 10294 10294 10297 10301 10304 10305 10306 10306 10308 10309 10311 10312 10314 10314 10315 10315 10316 10318 10319 10321 10322 10323 10323 10326 10327 10327 10326 10327 10329 10330 10330 10329 10328 10326 10326 10326 10326 10325 10326 10327 10326 10324 10322 10321 10320 10317 10314 10311 10310 10308 10307 10306 10305 10303 10302 10300 10298 10297 10294 10292 10290 10287 10285 10283 10280 10277 10275 10272 10270 10268 10266 10264 10262 10259 10256
10274 10275 10277 10276 10275 10279 10283 10283 10281 10282 10284 10283 10282 10285 10288 10290 10291 10291 10292 10293 10295 10297 10299 10301 10302 10302 10301 10301 10303 10304 10306 10307 10307 10308 10311 10312 10311 10310 10311 10312 10313 10314 10313 10311 10310 10309 10309 10308 10307 10306 10306 10307 10306 10303 10302 10302 10299 10296 10293 10291 10289 10288 10287 10285 10283 10281 10280 10279 10277 10276 10274 10272 10270 10267 10264 10262 10260 10257 10254 10252 10250 10248 10247 10246 10244 10241